EW0867 Weather Reports


time (UTC)temp
C
wind
direction
speed
KPH
gust
KPH
rain 1hr
cm
rain 24hr
cm
rain mn
cm
humidity
%
barometer
mb
20260506112523 17 144 0.0 12.9 0.20 2.31 0.20 88 1007.7
20260506112006 17 150 0.0 12.9 0.20 2.31 0.20 88 1007.8
20260506111506 17 137 0.0 3.2 0.20 2.31 0.20 89 1007.9
20260506111007 16 165 0.0 3.2 0.10 2.21 0.18 89 1007.7
20260506110507 16 107 0.0 0.0 0.10 2.21 0.18 89 1007.8
20260506110012 16 96 0.0 0.0 0.10 2.21 0.18 89 1007.9
20260506105512 16 210 0.0 8.0 0.20 2.39 0.18 90 1008.0
20260506105017 16 163 0.0 8.0 0.20 2.39 0.18 91 1008.0
20260506104518 16 130 1.6 8.0 0.20 2.39 0.18 92 1008.1
20260506103959 16 68 0.0 8.0 0.10 2.31 0.15 92 1008.0
20260506103500 16 29 0.0 0.0 0.10 2.31 0.15 93 1008.1
20260506103022 16 147 0.0 9.7 0.10 2.31 0.15 94 1008.1
20260506102501 16 86 0.0 9.7 0.10 2.31 0.15 94 1008.1
20260506102002 16 147 0.0 8.0 0.10 2.31 0.15 94 1008.1
20260506101502 15 107 1.6 11.3 0.10 2.31 0.15 94 1008.1
20260506101004 15 167 0.0 14.5 0.10 2.31 0.15 95 1008.0
20260506100505 15 134 1.6 14.5 0.10 2.31 0.15 95 1008.1
20260506100007 15 38 1.6 6.4 0.10 2.31 0.15 96 1008.1
20260506095507 15 100 0.0 0.0 0.00 2.31 0.15 96 1008.1
20260506095009 -17 0.0 0.0 0.00 2.31 0.15 1008.1
20260506094515 -17 0.0 0.0 0.00 2.31 0.15 1008.1
20260506094016 -17 0.0 0.0 0.00 2.31 0.15 1008.1
20260506093013 -17 0.0 0.0 0.00 2.31 0.15 1008.1
20260506092534 -17 0.0 0.0 0.00 2.31 0.15 1008.0
20260506092013 -17 0.0 0.0 0.00 2.31 0.15 1008.0
20260506091516 -17 0.0 0.0 0.00 2.31 0.15 1008.0
20260506091017 -17 0.0 0.0 0.00 2.31 0.15 1008.0
20260506090518 -17 0.0 0.0 0.00 2.31 0.15 1008.1
20260506085959 -17 0.0 0.0 0.00 2.31 0.15 1008.0
20260506085524 -17 0.0 0.0 0.00 2.39 0.15 1007.9
20260506085011 -17 0.0 0.0 0.00 2.39 0.15 1007.9
20260506084459 -17 0.0 0.0 0.00 2.39 0.15 1007.8
20260506084006 -17 0.0 0.0 0.00 2.39 0.15 1007.6
20260506083508 -17 0.0 0.0 0.00 2.39 0.15 1008.0
20260506083013 -17 0.0 0.0 0.00 2.39 0.15 1008.4
20260506082514 -17 0.0 0.0 0.00 2.39 0.15 1008.7
20260506082035 -17 0.0 0.0 0.00 2.39 0.15 1008.8
20260506081536 -17 0.0 0.0 0.00 2.39 0.15 1008.9
20260506080511 -17 0.0 0.0 0.00 2.39 0.15 1008.7
20260506073008 -17 0.0 0.0 0.00 3.00 0.15 1008.3
20260506072508 -17 0.0 0.0 0.00 3.00 0.15 1008.3
20260506072009 -17 0.0 0.0 0.00 3.00 0.15 1008.2
20260506071510 -17 0.0 0.0 0.00 3.00 0.15 1008.2
20260506071011 -17 0.0 0.0 0.00 3.00 0.15 1008.1
20260506070512 -17 0.0 0.0 0.00 3.00 0.15 1008.1
20260506062501 -17 0.0 0.0 0.00 4.09 0.15 1008.5
20260506062021 -17 0.0 0.0 0.00 4.09 0.15 1008.7
20260506061501 -17 0.0 0.0 0.00 4.09 0.15 1008.5
20260506060459 -17 0.0 0.0 0.00 4.09 0.15 1008.7
20260506051005 -17 0.0 0.0 0.00 5.31 0.15 1008.5
20260506050505 -17 0.0 0.0 0.00 5.31 0.15 1008.5
20260506045000 13 156 0.0 0.0 0.10 5.31 0.15 97 1008.7
20260506044501 13 157 0.0 0.0 0.10 5.31 0.15 96 1008.9
20260506044006 13 144 0.0 0.0 0.10 5.31 0.15 96 1009.0
20260506043506 13 135 0.0 0.0 0.10 5.31 0.15 96 1009.1
20260506043008 13 150 0.0 0.0 0.10 5.31 0.15 96 1009.2
20260506042528 13 157 0.0 0.0 0.10 5.31 0.15 96 1009.2
20260506042009 13 150 0.0 0.0 0.10 5.31 0.15 96 1009.2
20260506041509 13 161 0.0 0.0 0.10 5.31 0.15 96 1009.3
20260506041011 13 165 0.0 0.0 0.10 5.31 0.15 96 1009.4
20260506040511 13 169 0.0 0.0 0.10 5.31 0.15 96 1009.4
20260506040013 13 143 0.0 0.0 0.10 5.31 0.15 96 1009.4
20260506035518 13 146 0.0 0.0 0.10 5.31 0.15 96 1009.5
20260506035000 13 146 0.0 0.0 0.00 5.21 0.13 96 1009.6
20260506034500 13 150 0.0 0.0 0.00 5.21 0.13 96 1009.5
20260506034021 13 150 0.0 0.0 0.10 5.21 0.13 96 1009.5
20260506033500 13 158 0.0 0.0 0.10 5.21 0.13 96 1009.4
20260506033005 13 144 0.0 0.0 0.10 5.21 0.13 96 1009.3
20260506032526 13 148 0.0 0.0 0.10 5.21 0.13 96 1009.4
20260506032007 13 148 0.0 0.0 0.10 5.21 0.13 96 1009.4
20260506031507 13 148 0.0 0.0 0.10 5.21 0.13 96 1009.4
20260506031029 13 163 0.0 0.0 0.10 5.21 0.13 96 1009.5
20260506030529 13 165 0.0 0.0 0.10 5.21 0.13 96 1009.6
20260506030009 13 165 0.0 0.0 0.10 5.21 0.13 96 1009.8
20260506025509 13 49 0.0 0.0 0.10 5.21 0.13 96 1009.6
20260506025014 13 157 0.0 0.0 0.10 5.21 0.13 96 1010.0
20260506024459 13 112 0.0 0.0 0.00 5.11 0.10 96 1010.2
20260506024005 13 112 0.0 0.0 0.00 5.11 0.10 96 1010.3
20260506023508 13 111 0.0 0.0 0.00 5.11 0.10 96 1010.3
20260506023010 13 96 0.0 0.0 0.00 5.11 0.10 96 1010.3
20260506022510 13 95 0.0 0.0 0.00 5.11 0.10 96 1010.3
20260506022011 13 86 0.0 0.0 0.00 5.11 0.10 96 1010.2
20260506021511 13 85 0.0 0.0 0.00 5.11 0.10 96 1010.4
20260506021013 13 154 0.0 0.0 0.00 5.11 0.10 96 1010.5
20260506020534 13 154 0.0 0.0 0.00 5.11 0.10 96 1010.5
20260506020034 13 46 0.0 0.0 0.10 5.11 0.10 96 1010.5
20260506015514 13 46 0.0 0.0 0.10 5.11 0.10 96 1010.6
20260506015000 13 46 0.0 0.0 0.10 5.11 0.10 96 1010.6
20260506014504 13 46 0.0 0.0 0.10 5.11 0.10 96 1010.6
20260506014006 13 46 0.0 0.0 0.10 5.11 0.10 96 1010.5
20260506013506 13 46 0.0 0.0 0.10 5.11 0.10 96 1010.4
20260506013012 13 160 0.0 0.0 0.10 5.11 0.10 96 1010.4
20260506012512 13 167 0.0 0.0 0.10 5.11 0.10 96 1010.4
20260506012033 13 167 0.0 0.0 0.10 5.11 0.10 96 1010.4
20260506011513 13 168 0.0 0.0 0.20 5.11 0.10 96 1010.5
20260506011015 13 168 0.0 0.0 0.20 5.11 0.10 96 1010.5
20260506010455 13 81 0.0 0.0 0.20 5.11 0.10 96 1010.5
20260506010021 13 81 0.0 0.0 0.10 5.00 0.08 96 1010.4
20260506005501 13 82 0.0 0.0 0.10 5.00 0.08 96 1010.4
20260506005002 13 140 0.0 0.0 0.10 5.00 0.08 96 1010.5
20260506004523 13 143 0.0 0.0 0.10 5.00 0.08 96 1010.7
20260506004006 13 110 0.0 0.0 0.10 5.00 0.08 96 1010.9
20260506003506 13 110 0.0 0.0 0.10 5.00 0.08 96 1010.9
20260506003009 13 136 0.0 0.0 0.10 5.00 0.08 96 1011.1
20260506002509 13 136 0.0 0.0 0.10 5.00 0.08 96 1010.9
20260506002011 13 137 0.0 0.0 0.10 5.00 0.08 96 1011.1
20260506001518 13 142 0.0 0.0 0.00 4.90 0.05 96 1011.2
20260506001000 13 142 0.0 0.0 0.00 4.90 0.05 96 1011.2
20260506000501 13 143 0.0 0.0 0.00 4.90 0.05 96 1011.3
20260506000002 13 157 0.0 0.0 0.10 4.90 0.05 96 1011.3
20260505235503 13 157 0.0 0.0 0.10 4.90 0.05 96 1011.4
20260505235005 13 157 0.0 0.0 0.10 4.90 0.05 96 1011.4
20260505234525 13 157 0.0 0.0 0.10 4.90 0.05 96 1011.4
20260505234006 13 157 0.0 0.0 0.10 4.90 0.05 96 1011.5
20260505233506 13 157 0.0 0.0 0.10 4.90 0.05 96 1011.5
20260505233007 13 164 0.0 0.0 0.20 4.90 0.05 96 1011.6
20260505232507 13 165 0.0 0.0 0.20 4.90 0.05 95 1011.8
20260505232009 13 164 0.0 0.0 0.20 4.90 0.05 95 1011.7
20260505231530 13 164 0.0 0.0 0.20 4.90 0.05 95 1011.7
20260505230001 13 80 0.0 0.0 0.20 4.80 0.05 95 1011.6
20260505225040 13 80 0.0 0.0 0.20 4.80 0.05 95 1011.8
20260505211454 13 135 0.0 0.0 0.41 4.29 0.86 95 1012.5
20260505210957 13 135 0.0 0.0 0.51 4.29 0.86 95 1012.5
20260505210502 13 135 0.0 0.0 0.51 4.29 0.86 95 1012.5
20260505210004 14 135 0.0 0.0 0.61 4.29 0.86 95 1012.5
20260505205506 13 135 0.0 0.0 0.51 4.19 0.84 95 1012.6
20260505205029 13 135 0.0 0.0 0.41 4.09 0.81 95 1012.6
20260505204512 13 135 0.0 0.0 0.41 4.09 0.81 95 1012.6
20260505203954 13 135 0.0 0.0 0.51 4.09 0.81 95 1012.7
20260505203536 13 135 0.0 0.0 0.51 4.09 0.81 95 1012.7
20260505202958 13 135 0.0 0.0 0.51 3.99 0.79 95 1012.7
20260505202502 13 135 0.0 0.0 0.41 3.91 0.79 95 1012.7
20260505202004 13 139 0.0 0.0 0.41 3.91 0.79 95 1012.7
20260505201002 13 139 0.0 0.0 0.30 3.81 0.76 94 1012.7
20260505200020 13 139 0.0 0.0 0.30 3.71 0.74 94 1012.8
20260505195521 13 139 0.0 0.0 0.30 3.71 0.74 94 1012.7
20260505195022 13 139 0.0 0.0 0.30 3.71 0.74 94 1012.7
20260505194523 14 139 0.0 0.0 0.30 3.71 0.74 94 1012.7
20260505194008 14 139 0.0 0.0 0.20 3.61 0.71 94 1012.6
20260505193509 14 139 0.0 0.0 0.20 3.61 0.71 94 1012.6
20260505192912 14 139 0.0 0.0 0.10 3.51 0.71 94 1012.6
20260505192437 14 139 0.0 0.0 0.10 3.51 0.71 94 1012.5
20260505191918 14 139 0.0 0.0 0.10 3.51 0.71 94 1012.5
20260505190427 14 146 0.0 0.0 0.10 3.51 0.71 93 1012.4
20260505185423 14 146 0.0 0.0 0.10 3.40 0.69 93 1012.3
20260505184926 14 148 0.0 0.0 0.10 3.40 0.69 93 1012.3
20260505184431 14 140 0.0 0.0 0.10 3.40 0.69 93 1012.2
20260505183913 14 88 0.0 0.0 0.10 3.40 0.69 93 1012.2
20260505183418 14 88 0.0 0.0 0.10 3.40 0.69 93 1012.2
20260505182921 14 88 0.0 0.0 0.10 3.40 0.69 93 1012.2
20260505182421 14 88 0.0 0.0 0.10 3.40 0.69 93 1012.2
20260505181922 14 88 0.0 0.0 0.10 3.40 0.69 93 1012.1
20260505181423 14 90 0.0 0.0 0.10 3.40 0.69 93 1012.1
20260505180927 14 90 0.0 0.0 0.10 3.40 0.69 93 1012.2
20260505180428 14 91 0.0 0.0 0.10 3.40 0.69 93 1012.1
20260505175930 14 114 0.0 0.0 0.10 3.40 0.69 92 1012.2
20260505175450 14 113 0.0 0.0 0.00 3.30 0.66 92 1012.1
20260505174936 14 111 0.0 0.0 0.00 3.30 0.66 92 1012.1
20260505174421 14 112 0.0 0.0 0.00 3.30 0.66 92 1012.1
20260505173947 14 131 0.0 0.0 0.00 3.30 0.66 92 1012.2
20260505173427 14 132 0.0 0.0 0.00 3.30 0.66 91 1012.2
20260505172435 14 118 0.0 0.0 0.00 3.30 0.66 91 1012.2
20260505171937 14 107 0.0 0.0 0.00 3.30 0.66 91 1012.2
20260505171442 14 107 0.0 0.0 0.00 3.30 0.66 91 1012.2
20260505170944 14 142 0.0 0.0 0.00 3.30 0.66 91 1012.1
20260505170504 14 144 0.0 0.0 0.00 3.30 0.66 91 1012.2
20260505165945 14 153 0.0 0.0 0.00 3.30 0.66 91 1012.1
20260505165430 14 111 0.0 0.0 0.00 3.30 0.66 91 1012.2
20260505164935 14 105 0.0 0.0 0.00 3.30 0.66 91 1012.2
20260505164435 14 127 0.0 0.0 0.00 3.30 0.66 91 1012.3
20260505163936 14 166 0.0 0.0 0.00 3.30 0.66 91 1012.3
20260505163436 14 171 0.0 0.0 0.00 3.30 0.66 91 1012.3
20260505163002 15 155 0.0 0.0 0.00 3.30 0.66 91 1012.3
20260505162441 14 155 0.0 0.0 0.00 3.30 0.66 91 1012.3
20260505161942 15 152 0.0 0.0 0.00 3.30 0.66 90 1012.4
20260505161446 15 159 0.0 0.0 0.00 3.30 0.66 90 1012.4
20260505160947 15 155 0.0 0.0 0.00 3.30 0.66 90 1012.4
20260505160451 15 155 0.0 0.0 0.00 3.30 0.66 90 1012.4
20260505152946 15 159 0.0 0.0 0.00 3.30 0.66 89 1012.6
20260505152451 15 157 0.0 0.0 0.00 3.30 0.66 89 1012.5
20260505151952 15 138 0.0 0.0 0.00 3.30 0.66 89 1012.5
20260505151453 15 137 0.0 0.0 0.00 3.30 0.66 89 1012.5
20260505150934 15 139 0.0 0.0 0.00 3.30 0.66 88 1012.5
20260505150434 15 137 0.0 0.0 0.00 3.30 0.66 88 1012.5
20260505140500 15 131 0.0 0.0 0.00 3.30 0.66 88 1012.7
20260505124942 15 170 0.0 0.0 0.00 3.30 0.66 88 1013.0
20260505124447 15 159 0.0 0.0 0.00 3.30 0.66 88 1013.0
20260505123953 15 150 0.0 0.0 0.00 3.30 0.66 89 1013.0
20260505123453 15 150 0.0 0.0 0.00 3.30 0.66 90 1013.0
20260505122934 15 151 0.0 0.0 0.00 3.30 0.66 90 1012.9
20260505122435 15 85 0.0 0.0 0.00 3.30 0.66 91 1012.9
20260505121936 14 65 0.0 0.0 0.00 3.30 0.66 91 1013.0
20260505121436 14 74 0.0 0.0 0.00 3.30 0.66 92 1013.0
20260505120941 14 61 0.0 0.0 0.00 3.30 0.66 92 1013.0
20260505120501 14 65 0.0 0.0 0.00 3.30 0.66 92 1012.9
20260505115942 14 148 0.0 0.0 0.00 3.30 0.66 93 1013.0
20260505115443 14 173 0.0 0.0 0.00 3.30 0.66 93 1013.0
20260505114945 14 65 0.0 0.0 0.00 3.30 0.66 93 1013.0
20260505114445 14 24 0.0 0.0 0.00 3.30 0.66 93 1012.9
20260505113946 13 338 0.0 0.0 0.00 3.30 0.66 93 1012.9
20260505113451 13 341 0.0 0.0 0.00 3.30 0.66 93 1013.0
20260505112953 13 346 0.0 0.0 0.00 3.30 0.66 94 1013.0